| time (UTC) | temp F | wind direction | speed MPH | gust MPH | rain 1hr in | rain 24hr in | rain mn in | humidity % | barometer mb |
| 20260506073521 | 51 | 256 | 9.0 | 15.0 | 0.00 | 0.00 | 0.00 | 89 | 1016.4 |
| 20260506073043 | 51 | 261 | 9.0 | 12.0 | 0.00 | 0.00 | 0.00 | 89 | 1015.4 |
| 20260506072645 | 51 | 228 | 9.0 | 14.0 | 0.00 | 0.00 | 0.00 | 88 | 1016.0 |
| 20260506072543 | 51 | 237 | 9.0 | 13.0 | 0.00 | 0.00 | 0.00 | 88 | 1016.4 |
| 20260506072019 | 51 | 245 | 8.0 | 13.0 | 0.00 | 0.00 | 0.00 | 89 | 1015.4 |
| 20260506071602 | 51 | 242 | 7.0 | 10.0 | 0.00 | 0.00 | 0.00 | 88 | 1016.4 |
| 20260506071530 | 51 | 233 | 7.0 | 10.0 | 0.00 | 0.00 | 0.00 | 88 | 1016.0 |
| 20260506071042 | 51 | 255 | 7.0 | 12.0 | 0.00 | 0.00 | 0.00 | 88 | 1015.4 |
| 20260506070545 | 52 | 264 | 8.0 | 13.0 | 0.00 | 0.00 | 0.00 | 88 | 1016.0 |
| 20260506070518 | 52 | 271 | 7.0 | 11.0 | 0.00 | 0.00 | 0.00 | 88 | 1016.0 |
| 20260506062043 | 52 | 235 | 10.0 | 15.0 | 0.00 | 0.00 | 0.00 | 86 | 1014.7 |
| 20260506061543 | 53 | 252 | 7.0 | 12.0 | 0.00 | 0.00 | 0.00 | 85 | 1015.4 |
| 20260506061526 | 53 | 258 | 6.0 | 9.0 | 0.00 | 0.00 | 0.00 | 85 | 1015.7 |
| 20260506061020 | 53 | 248 | 7.0 | 14.0 | 0.00 | 0.00 | 0.00 | 84 | 1014.7 |
| 20260506060621 | 53 | 249 | 8.0 | 16.0 | 0.00 | 0.00 | 0.00 | 83 | 1015.4 |
| 20260506060548 | 53 | 251 | 9.0 | 15.0 | 0.00 | 0.00 | 0.00 | 83 | 1015.7 |
| 20260506060117 | 53 | 247 | 8.0 | 14.0 | 0.00 | 0.00 | 0.00 | 83 | 1014.3 |
| 20260506051024 | 53 | 261 | 7.0 | 10.0 | 0.00 | 0.00 | 0.00 | 88 | 1014.0 |
| 20260506050546 | 53 | 264 | 6.0 | 9.0 | 0.00 | 0.00 | 0.00 | 89 | 1015.0 |
| 20260506050535 | 53 | 277 | 8.0 | 14.0 | 0.00 | 0.00 | 0.00 | 89 | 1015.0 |
| 20260506045033 | 53 | 260 | 6.0 | 10.0 | 0.00 | 0.00 | 0.00 | 88 | 1014.0 |
| 20260506044547 | 53 | 261 | 6.0 | 11.0 | 0.00 | 0.00 | 0.00 | 89 | 1014.7 |
| 20260506044535 | 53 | 279 | 6.0 | 10.0 | 0.00 | 0.00 | 0.00 | 89 | 1014.7 |
| 20260506044029 | 53 | 247 | 7.0 | 10.0 | 0.00 | 0.00 | 0.00 | 89 | 1013.7 |
| 20260506043553 | 53 | 246 | 5.0 | 10.0 | 0.00 | 0.00 | 0.00 | 89 | 1014.3 |
| 20260506043523 | 53 | 242 | 5.0 | 10.0 | 0.00 | 0.00 | 0.00 | 89 | 1014.3 |
| 20260506043034 | 53 | 270 | 6.0 | 9.0 | 0.00 | 0.00 | 0.00 | 89 | 1013.7 |
| 20260506042555 | 53 | 287 | 5.0 | 8.0 | 0.00 | 0.00 | 0.00 | 89 | 1014.7 |
| 20260506042519 | 53 | 287 | 5.0 | 8.0 | 0.00 | 0.00 | 0.00 | 89 | 1014.7 |
| 20260506042031 | 53 | 270 | 5.0 | 8.0 | 0.00 | 0.00 | 0.00 | 90 | 1013.7 |
| 20260506041559 | 53 | 234 | 4.0 | 6.0 | 0.00 | 0.00 | 0.00 | 90 | 1014.3 |
| 20260506041534 | 53 | 252 | 5.0 | 8.0 | 0.00 | 0.00 | 0.00 | 90 | 1014.3 |
| 20260506041038 | 53 | 257 | 5.0 | 6.0 | 0.00 | 0.00 | 0.00 | 91 | 1013.3 |
| 20260506040538 | 53 | 253 | 4.0 | 7.0 | 0.00 | 0.00 | 0.00 | 92 | 1014.0 |
| 20260506040521 | 53 | 244 | 4.0 | 7.0 | 0.00 | 0.00 | 0.00 | 92 | 1014.0 |
| 20260506040024 | 53 | 231 | 4.0 | 6.0 | 0.00 | 0.00 | 0.00 | 92 | 1013.0 |
| 20260506035603 | 53 | 243 | 4.0 | 6.0 | 0.00 | 0.00 | 0.00 | 92 | 1014.0 |
| 20260506035543 | 53 | 243 | 4.0 | 8.0 | 0.00 | 0.00 | 0.00 | 92 | 1014.3 |
| 20260506035019 | 53 | 280 | 4.0 | 10.0 | 0.00 | 0.00 | 0.00 | 92 | 1013.3 |
| 20260506034658 | 54 | 262 | 6.0 | 9.0 | 0.00 | 0.00 | 0.00 | 92 | 1014.0 |
| 20260506034539 | 54 | 257 | 6.0 | 9.0 | 0.00 | 0.00 | 0.00 | 92 | 1014.3 |
| 20260506034033 | 54 | 258 | 4.0 | 9.0 | 0.00 | 0.00 | 0.00 | 92 | 1013.3 |
| 20260506033636 | 54 | 260 | 5.0 | 8.0 | 0.00 | 0.00 | 0.00 | 92 | 1014.0 |
| 20260506033518 | 54 | 245 | 5.0 | 6.0 | 0.00 | 0.00 | 0.00 | 92 | 1014.0 |
| 20260506033030 | 54 | 284 | 7.0 | 10.0 | 0.00 | 0.00 | 0.00 | 93 | 1013.0 |
| 20260506032524 | 54 | 301 | 6.0 | 11.0 | 0.00 | 0.00 | 0.00 | 93 | 1013.7 |
| 20260506032037 | 54 | 288 | 4.0 | 6.0 | 0.00 | 0.00 | 0.00 | 94 | 1012.6 |
| 20260506031539 | 55 | 252 | 3.0 | 5.0 | 0.00 | 0.00 | 0.00 | 93 | 1013.3 |
| 20260506031528 | 55 | 248 | 4.0 | 6.0 | 0.00 | 0.00 | 0.00 | 93 | 1013.7 |
| 20260506031031 | 55 | 241 | 5.0 | 10.0 | 0.00 | 0.00 | 0.00 | 93 | 1012.6 |
| 20260506030603 | 55 | 263 | 5.0 | 8.0 | 0.00 | 0.00 | 0.00 | 92 | 1013.3 |
| 20260506030601 | 55 | 261 | 5.0 | 8.0 | 0.00 | 0.00 | 0.00 | 92 | 1013.3 |
| 20260506030047 | 56 | 254 | 5.0 | 9.0 | 0.00 | 0.00 | 0.00 | 92 | 1012.3 |
| 20260506025651 | 56 | 265 | 7.0 | 10.0 | 0.00 | 0.00 | 0.00 | 92 | 1013.0 |
| 20260506025521 | 56 | 271 | 8.0 | 12.0 | 0.00 | 0.00 | 0.00 | 92 | 1013.3 |
| 20260506025028 | 56 | 261 | 6.0 | 9.0 | 0.00 | 0.00 | 0.00 | 93 | 1012.3 |
| 20260506024546 | 56 | 267 | 7.0 | 9.0 | 0.00 | 0.00 | 0.00 | 93 | 1013.0 |
| 20260506024525 | 56 | 268 | 5.0 | 9.0 | 0.00 | 0.00 | 0.00 | 93 | 1013.0 |
| 20260506024020 | 56 | 250 | 7.0 | 10.0 | 0.00 | 0.00 | 0.00 | 94 | 1011.9 |
| 20260506023557 | 56 | 259 | 6.0 | 9.0 | 0.00 | 0.00 | 0.00 | 96 | 1012.6 |
| 20260506023522 | 56 | 255 | 6.0 | 10.0 | 0.00 | 0.00 | 0.00 | 95 | 1013.0 |
| 20260506023033 | 56 | 251 | 6.0 | 12.0 | 0.00 | 0.00 | 0.00 | 96 | 1011.9 |
| 20260506022536 | 56 | 250 | 4.0 | 6.0 | 0.00 | 0.00 | 0.00 | 97 | 1013.0 |
| 20260506022518 | 56 | 253 | 3.0 | 5.0 | 0.00 | 0.00 | 0.00 | 97 | 1012.6 |
| 20260506022047 | 56 | 239 | 3.0 | 5.0 | 0.00 | 0.00 | 0.00 | 97 | 1011.6 |
| 20260506021607 | 55 | 239 | 3.0 | 5.0 | 0.00 | 0.00 | 0.00 | 97 | 1012.3 |
| 20260506021532 | 55 | 231 | 3.0 | 5.0 | 0.00 | 0.00 | 0.00 | 97 | 1012.6 |
| 20260506021055 | 55 | 244 | 4.0 | 7.0 | 0.00 | 0.00 | 0.00 | 97 | 1011.6 |
| 20260506020546 | 55 | 260 | 4.0 | 6.0 | 0.00 | 0.00 | 0.00 | 97 | 1012.6 |
| 20260506020519 | 55 | 258 | 4.0 | 4.0 | 0.00 | 0.00 | 0.00 | 97 | 1012.6 |
| 20260506020048 | 55 | 236 | 3.0 | 7.0 | 0.00 | 0.00 | 0.00 | 97 | 1011.6 |
| 20260506015551 | 55 | 256 | 3.0 | 5.0 | 0.00 | 0.00 | 0.00 | 97 | 1012.6 |
| 20260506015545 | 55 | 249 | 3.0 | 6.0 | 0.00 | 0.00 | 0.00 | 97 | 1012.3 |
| 20260506015024 | 55 | 286 | 3.0 | 7.0 | 0.00 | 0.00 | 0.00 | 97 | 1011.9 |
| 20260506014541 | 56 | 281 | 5.0 | 10.0 | 0.00 | 0.00 | 0.00 | 97 | 1013.0 |
| 20260506014538 | 56 | 276 | 5.0 | 10.0 | 0.00 | 0.00 | 0.00 | 97 | 1012.6 |
| 20260506014024 | 56 | 255 | 5.0 | 9.0 | 0.00 | 0.00 | 0.00 | 97 | 1011.9 |
| 20260506013601 | 56 | 264 | 6.0 | 7.0 | 0.00 | 0.00 | 0.00 | 97 | 1012.6 |
| 20260506013543 | 56 | 254 | 6.0 | 11.0 | 0.00 | 0.00 | 0.00 | 97 | 1013.0 |
| 20260506013048 | 56 | 264 | 6.0 | 12.0 | 0.00 | 0.00 | 0.00 | 97 | 1011.9 |
| 20260506012751 | 56 | 280 | 6.0 | 9.0 | 0.00 | 0.00 | 0.00 | 97 | 1012.6 |
| 20260506012540 | 56 | 271 | 6.0 | 9.0 | 0.00 | 0.00 | 0.00 | 97 | 1012.6 |
| 20260506012033 | 56 | 263 | 6.0 | 10.0 | 0.00 | 0.00 | 0.00 | 96 | 1011.6 |
| 20260506011620 | 56 | 256 | 6.0 | 9.0 | 0.00 | 0.00 | 0.00 | 96 | 1012.3 |
| 20260506011538 | 56 | 274 | 5.0 | 9.0 | 0.00 | 0.00 | 0.00 | 96 | 1012.3 |
| 20260506011029 | 56 | 259 | 5.0 | 8.0 | 0.00 | 0.00 | 0.00 | 96 | 1011.3 |
| 20260506010540 | 56 | 289 | 6.0 | 12.0 | 0.00 | 0.00 | 0.00 | 96 | 1011.9 |
| 20260506010532 | 56 | 292 | 6.0 | 12.0 | 0.00 | 0.00 | 0.00 | 96 | 1011.9 |
| 20260506010026 | 56 | 254 | 6.0 | 9.0 | 0.00 | 0.00 | 0.00 | 95 | 1011.3 |
| 20260506005722 | 56 | 284 | 4.0 | 6.0 | 0.00 | 0.00 | 0.00 | 95 | 1012.3 |
| 20260506005520 | 56 | 285 | 4.0 | 7.0 | 0.00 | 0.00 | 0.00 | 95 | 1012.3 |
| 20260506005023 | 57 | 273 | 5.0 | 8.0 | 0.00 | 0.00 | 0.00 | 94 | 1011.3 |
| 20260506004634 | 57 | 271 | 2.0 | 5.0 | 0.00 | 0.00 | 0.00 | 94 | 1011.6 |
| 20260506004533 | 57 | 262 | 2.0 | 5.0 | 0.00 | 0.00 | 0.00 | 94 | 1011.9 |
| 20260506004116 | 57 | 241 | 3.0 | 5.0 | 0.00 | 0.00 | 0.00 | 94 | 1010.9 |
| 20260506003521 | 57 | 237 | 4.0 | 6.0 | 0.00 | 0.00 | 0.00 | 94 | 1011.6 |
| 20260506003023 | 57 | 242 | 3.0 | 6.0 | 0.00 | 0.00 | 0.00 | 94 | 1010.6 |
| 20260506002601 | 57 | 272 | 4.0 | 5.0 | 0.00 | 0.00 | 0.00 | 94 | 1011.3 |
| 20260506002526 | 57 | 269 | 4.0 | 6.0 | 0.00 | 0.00 | 0.00 | 94 | 1011.3 |
| 20260506002019 | 57 | 250 | 4.0 | 8.0 | 0.00 | 0.00 | 0.00 | 94 | 1010.2 |
| 20260506001531 | 57 | 276 | 4.0 | 7.0 | 0.00 | 0.00 | 0.00 | 94 | 1011.3 |
| 20260506001033 | 57 | 290 | 5.0 | 9.0 | 0.00 | 0.00 | 0.00 | 94 | 1010.2 |
| 20260506000804 | 57 | 243 | 4.0 | 8.0 | 0.00 | 0.00 | 0.00 | 94 | 1010.9 |
| 20260506000518 | 57 | 246 | 4.0 | 8.0 | 0.00 | 0.00 | 0.00 | 94 | 1011.3 |
| 20260506000041 | 57 | 257 | 5.0 | 7.0 | 0.00 | 0.00 | 0.00 | 93 | 1010.2 |
| 20260505235553 | 57 | 276 | 5.0 | 9.0 | 0.00 | 0.00 | 0.00 | 93 | 1011.3 |
| 20260505235034 | 57 | 295 | 4.0 | 5.0 | 0.00 | 0.00 | 0.00 | 93 | 1010.2 |
| 20260505234540 | 57 | 297 | 6.0 | 9.0 | 0.00 | 0.00 | 0.00 | 93 | 1010.9 |
| 20260505234031 | 58 | 305 | 6.0 | 10.0 | 0.00 | 0.00 | 0.00 | 92 | 1009.9 |
| 20260505233533 | 58 | 297 | 4.0 | 7.0 | 0.00 | 0.00 | 0.00 | 92 | 1010.9 |
| 20260505233525 | 58 | 288 | 4.0 | 6.0 | 0.00 | 0.00 | 0.00 | 92 | 1010.6 |
| 20260505233035 | 58 | 281 | 4.0 | 6.0 | 0.00 | 0.00 | 0.00 | 92 | 1009.9 |
| 20260505232543 | 58 | 240 | 5.0 | 8.0 | 0.00 | 0.00 | 0.00 | 92 | 1010.6 |
| 20260505232529 | 58 | 242 | 5.0 | 8.0 | 0.00 | 0.00 | 0.00 | 92 | 1010.2 |
| 20260505232043 | 58 | 226 | 5.0 | 8.0 | 0.00 | 0.00 | 0.00 | 92 | 1009.6 |
| 20260505231535 | 58 | 260 | 5.0 | 9.0 | 0.00 | 0.00 | 0.00 | 92 | 1010.2 |
| 20260505231028 | 58 | 248 | 6.0 | 12.0 | 0.00 | 0.00 | 0.00 | 92 | 1009.6 |
| 20260505230548 | 58 | 271 | 7.0 | 12.0 | 0.00 | 0.00 | 0.00 | 92 | 1010.2 |
| 20260505230522 | 58 | 273 | 6.0 | 9.0 | 0.00 | 0.00 | 0.00 | 92 | 1010.2 |
| 20260505230030 | 58 | 265 | 7.0 | 12.0 | 0.00 | 0.00 | 0.00 | 92 | 1009.2 |
| 20260505225712 | 58 | 246 | 4.0 | 7.0 | 0.00 | 0.00 | 0.00 | 92 | 1009.9 |
| 20260505225527 | 58 | 242 | 4.0 | 7.0 | 0.00 | 0.00 | 0.00 | 92 | 1010.2 |
| 20260505225020 | 59 | 223 | 6.0 | 10.0 | 0.00 | 0.00 | 0.00 | 91 | 1008.9 |
| 20260505224540 | 59 | 235 | 5.0 | 7.0 | 0.00 | 0.00 | 0.00 | 90 | 1009.9 |
| 20260505224532 | 59 | 226 | 6.0 | 12.0 | 0.00 | 0.00 | 0.00 | 90 | 1009.9 |
| 20260505224034 | 59 | 269 | 6.0 | 10.0 | 0.00 | 0.00 | 0.00 | 87 | 1008.9 |
| 20260505223545 | 59 | 263 | 7.0 | 11.0 | 0.00 | 0.00 | 0.00 | 87 | 1009.9 |
| 20260505223540 | 59 | 254 | 7.0 | 9.0 | 0.00 | 0.00 | 0.00 | 87 | 1009.6 |
| 20260505223042 | 59 | 241 | 8.0 | 13.0 | 0.00 | 0.00 | 0.00 | 86 | 1008.5 |
| 20260505222525 | 60 | 240 | 7.0 | 10.0 | 0.00 | 0.00 | 0.00 | 85 | 1009.6 |
| 20260505222104 | 60 | 243 | 6.0 | 9.0 | 0.00 | 0.00 | 0.00 | 84 | 1008.5 |
| 20260505221616 | 60 | 295 | 6.0 | 8.0 | 0.00 | 0.00 | 0.00 | 83 | 1009.2 |
| 20260505221521 | 60 | 281 | 7.0 | 13.0 | 0.00 | 0.00 | 0.00 | 83 | 1009.2 |
| 20260505221045 | 60 | 287 | 6.0 | 8.0 | 0.00 | 0.00 | 0.00 | 82 | 1008.2 |
| 20260505220614 | 61 | 279 | 7.0 | 10.0 | 0.00 | 0.00 | 0.00 | 81 | 1009.2 |
| 20260505220534 | 61 | 282 | 5.0 | 10.0 | 0.00 | 0.00 | 0.00 | 81 | 1008.9 |
| 20260505220020 | 61 | 287 | 7.0 | 11.0 | 0.00 | 0.00 | 0.00 | 81 | 1008.2 |
| 20260505215523 | 61 | 302 | 7.0 | 11.0 | 0.00 | 0.00 | 0.00 | 80 | 1008.9 |
| 20260505215025 | 61 | 299 | 9.0 | 15.0 | 0.00 | 0.00 | 0.00 | 80 | 1007.8 |
| 20260505214553 | 62 | 307 | 14.0 | 21.0 | 0.00 | 0.00 | 0.00 | 79 | 1008.5 |
| 20260505214527 | 62 | 307 | 11.0 | 18.0 | 0.00 | 0.00 | 0.00 | 79 | 1008.5 |
| 20260505214021 | 62 | 307 | 12.0 | 22.0 | 0.00 | 0.00 | 0.00 | 79 | 1007.5 |
| 20260505213558 | 62 | 308 | 14.0 | 19.0 | 0.00 | 0.00 | 0.00 | 78 | 1008.2 |
| 20260505213532 | 62 | 310 | 14.0 | 23.0 | 0.00 | 0.00 | 0.00 | 78 | 1008.2 |
| 20260505213034 | 62 | 309 | 14.0 | 32.0 | 0.00 | 0.00 | 0.00 | 79 | 1007.2 |
| 20260505212528 | 63 | 302 | 16.0 | 21.0 | 0.00 | 0.00 | 0.00 | 78 | 1007.8 |
| 20260505212520 | 63 | 302 | 17.0 | 22.0 | 0.00 | 0.00 | 0.00 | 78 | 1008.2 |
| 20260505212022 | 65 | 309 | 20.0 | 32.0 | 0.00 | 0.00 | 0.00 | 75 | 1007.2 |
| 20260505211545 | 70 | 282 | 16.0 | 22.0 | 0.00 | 0.00 | 0.00 | 61 | 1007.5 |
| 20260505211524 | 70 | 284 | 17.0 | 26.0 | 0.00 | 0.00 | 0.00 | 61 | 1007.8 |
| 20260505211044 | 70 | 281 | 22.0 | 31.0 | 0.00 | 0.00 | 0.00 | 60 | 1005.8 |
| 20260505210520 | 70 | 252 | 19.0 | 31.0 | 0.00 | 0.00 | 0.00 | 60 | 1006.8 |
| 20260505210032 | 70 | 260 | 18.0 | 27.0 | 0.00 | 0.00 | 0.00 | 61 | 1005.8 |
| 20260505205552 | 71 | 281 | 16.0 | 28.0 | 0.00 | 0.00 | 0.00 | 61 | 1006.5 |
| 20260505205019 | 70 | 261 | 18.0 | 26.0 | 0.00 | 0.00 | 0.00 | 62 | 1005.5 |
| 20260505204548 | 70 | 259 | 20.0 | 31.0 | 0.00 | 0.00 | 0.00 | 63 | 1006.5 |
| 20260505204522 | 70 | 253 | 18.0 | 31.0 | 0.00 | 0.00 | 0.00 | 63 | 1006.8 |
| 20260505204033 | 70 | 268 | 17.0 | 26.0 | 0.00 | 0.00 | 0.00 | 64 | 1005.5 |
| 20260505203716 | 70 | 271 | 16.0 | 22.0 | 0.00 | 0.00 | 0.00 | 65 | 1006.8 |
| 20260505203527 | 70 | 264 | 16.0 | 21.0 | 0.00 | 0.00 | 0.00 | 65 | 1006.5 |
| 20260505203020 | 69 | 251 | 14.0 | 22.0 | 0.00 | 0.00 | 0.00 | 67 | 1005.8 |
| 20260505202532 | 69 | 275 | 14.0 | 17.0 | 0.00 | 0.00 | 0.00 | 68 | 1006.8 |
| 20260505202523 | 69 | 266 | 18.0 | 23.0 | 0.00 | 0.00 | 0.00 | 68 | 1006.5 |
| 20260505202026 | 70 | 271 | 12.0 | 21.0 | 0.00 | 0.00 | 0.00 | 69 | 1005.8 |
| 20260505201554 | 69 | 266 | 11.0 | 14.0 | 0.00 | 0.00 | 0.00 | 70 | 1006.5 |
| 20260505201519 | 69 | 267 | 12.0 | 18.0 | 0.00 | 0.00 | 0.00 | 71 | 1006.8 |
| 20260505201022 | 69 | 274 | 12.0 | 20.0 | 0.00 | 0.00 | 0.00 | 72 | 1005.8 |
| 20260505200542 | 68 | 265 | 12.0 | 16.0 | 0.00 | 0.00 | 0.00 | 73 | 1006.8 |
| 20260505200524 | 68 | 272 | 11.0 | 17.0 | 0.00 | 0.00 | 0.00 | 73 | 1006.8 |
| 20260505200117 | 68 | 265 | 13.0 | 23.0 | 0.00 | 0.00 | 0.00 | 74 | 1005.8 |
| 20260505195602 | 67 | 277 | 13.0 | 21.0 | 0.00 | 0.00 | 0.00 | 75 | 1006.8 |
| 20260505195539 | 67 | 280 | 14.0 | 18.0 | 0.00 | 0.00 | 0.00 | 76 | 1006.8 |
| 20260505195032 | 67 | 263 | 11.0 | 19.0 | 0.00 | 0.00 | 0.00 | 77 | 1006.1 |
| 20260505194618 | 66 | 259 | 12.0 | 18.0 | 0.00 | 0.00 | 0.00 | 78 | 1007.2 |
| 20260505194552 | 66 | 257 | 12.0 | 16.0 | 0.00 | 0.00 | 0.00 | 78 | 1007.2 |
| 20260505194040 | 66 | 259 | 13.0 | 18.0 | 0.00 | 0.00 | 0.00 | 79 | 1006.5 |
| 20260505193522 | 66 | 273 | 11.0 | 18.0 | 0.00 | 0.00 | 0.00 | 80 | 1007.5 |
| 20260505193025 | 66 | 238 | 10.0 | 17.0 | 0.00 | 0.00 | 0.00 | 81 | 1006.5 |
| 20260505192628 | 65 | 268 | 10.0 | 15.0 | 0.00 | 0.00 | 0.00 | 82 | 1007.5 |
| 20260505192602 | 65 | 265 | 11.0 | 18.0 | 0.00 | 0.00 | 0.00 | 82 | 1007.5 |
| 20260505192041 | 64 | 267 | 10.0 | 15.0 | 0.00 | 0.00 | 0.00 | 84 | 1006.8 |
| 20260505191549 | 64 | 240 | 9.0 | 11.0 | 0.00 | 0.00 | 0.00 | 85 | 1007.5 |
| 20260505191523 | 64 | 244 | 7.0 | 12.0 | 0.00 | 0.00 | 0.00 | 85 | 1007.5 |
| 20260505191034 | 64 | 243 | 6.0 | 9.0 | 0.00 | 0.00 | 0.00 | 86 | 1006.8 |
| 20260505190621 | 63 | 242 | 5.0 | 5.0 | 0.00 | 0.00 | 0.00 | 87 | 1007.8 |
| 20260505190540 | 63 | 234 | 8.0 | 15.0 | 0.00 | 0.00 | 0.00 | 86 | 1008.2 |
| 20260505190043 | 63 | 249 | 7.0 | 12.0 | 0.00 | 0.00 | 0.00 | 87 | 1007.2 |
| 20260505185533 | 62 | 237 | 5.0 | 9.0 | 0.00 | 0.00 | 0.00 | 87 | 1008.2 |
| 20260505185524 | 62 | 212 | 5.0 | 5.0 | 0.00 | 0.00 | 0.00 | 87 | 1007.8 |
| 20260505185102 | 61 | 230 | 6.0 | 10.0 | 0.00 | 0.00 | 0.00 | 88 | 1007.2 |
| 20260505184538 | 61 | 249 | 3.0 | 5.0 | 0.00 | 0.00 | 0.00 | 91 | 1007.8 |
| 20260505184107 | 60 | 174 | 2.0 | 6.0 | 0.00 | 0.00 | 0.00 | 92 | 1007.2 |
| 20260505183526 | 60 | 196 | 2.0 | 5.0 | 0.00 | 0.00 | 0.00 | 92 | 1008.2 |
| 20260505183349 | 59 | 146 | 5.0 | 6.0 | 0.00 | 0.00 | 0.00 | 93 | 1008.2 |
| 20260505183028 | 59 | 160 | 2.0 | 6.0 | 0.00 | 0.00 | 0.00 | 93 | 1007.5 |
| 20260505182549 | 59 | 157 | 4.0 | 7.0 | 0.00 | 0.00 | 0.00 | 93 | 1008.2 |
| 20260505182025 | 59 | 175 | 3.0 | 5.0 | 0.00 | 0.00 | 0.00 | 94 | 1007.5 |
| 20260505181548 | 59 | 178 | 4.0 | 8.0 | 0.00 | 0.00 | 0.00 | 94 | 1008.5 |
| 20260505181021 | 58 | 169 | 3.0 | 5.0 | 0.00 | 0.00 | 0.00 | 93 | 1007.8 |
| 20260505180549 | 58 | 195 | 2.0 | 4.0 | 0.00 | 0.00 | 0.00 | 93 | 1008.9 |
| 20260505180103 | 58 | 218 | 1.0 | 3.0 | 0.00 | 0.00 | 0.00 | 93 | 1007.8 |
| 20260505175548 | 58 | 262 | 3.0 | 5.0 | 0.00 | 0.00 | 0.00 | 93 | 1008.9 |
| 20260505175537 | 58 | 277 | 3.0 | 3.0 | 0.00 | 0.00 | 0.00 | 93 | 1008.5 |
| 20260505175453 | 58 | 303 | 3.0 | 3.0 | 0.00 | 0.00 | 0.00 | 93 | 1008.5 |
| 20260505175025 | 57 | 313 | 4.0 | 6.0 | 0.00 | 0.00 | 0.00 | 94 | 1007.8 |
| 20260505174524 | 58 | 312 | 4.0 | 6.0 | 0.00 | 0.00 | 0.00 | 93 | 1008.9 |
| 20260505174047 | 58 | 323 | 4.0 | 6.0 | 0.00 | 0.00 | 0.00 | 93 | 1008.2 |
| 20260505173529 | 58 | 324 | 3.0 | 4.0 | 0.00 | 0.00 | 0.00 | 92 | 1008.9 |
| 20260505173521 | 58 | 331 | 4.0 | 7.0 | 0.00 | 0.00 | 0.00 | 92 | 1008.9 |
| 20260505173023 | 58 | 334 | 4.0 | 7.0 | 0.00 | 0.00 | 0.00 | 91 | 1007.8 |
| 20260505172644 | 58 | 339 | 2.0 | 4.0 | 0.00 | 0.00 | 0.00 | 91 | 1008.5 |
| 20260505172534 | 58 | 334 | 2.0 | 6.0 | 0.00 | 0.00 | 0.00 | 91 | 1008.9 |
| 20260505172106 | 59 | 344 | 2.0 | 5.0 | 0.00 | 0.00 | 0.00 | 90 | 1007.5 |
| 20260505171623 | 59 | 336 | 3.0 | 6.0 | 0.00 | 0.00 | 0.00 | 89 | 1008.5 |
| 20260505171530 | 59 | 335 | 2.0 | 3.0 | 0.00 | 0.00 | 0.00 | 88 | 1008.5 |
| 20260505171152 | 59 | 334 | 3.0 | 3.0 | 0.00 | 0.00 | 0.00 | 87 | 1008.5 |
| 20260505171033 | 59 | 344 | 2.0 | 3.0 | 0.00 | 0.00 | 0.00 | 87 | 1007.5 |
| 20260505170527 | 59 | 333 | 3.0 | 5.0 | 0.00 | 0.00 | 0.00 | 87 | 1008.5 |
| 20260505170020 | 59 | 338 | 2.0 | 4.0 | 0.00 | 0.00 | 0.00 | 87 | 1007.5 |
| 20260505165619 | 59 | 331 | 4.0 | 6.0 | 0.00 | 0.00 | 0.00 | 85 | 1008.5 |
| 20260505165532 | 59 | 324 | 3.0 | 6.0 | 0.00 | 0.00 | 0.00 | 86 | 1008.5 |
| 20260505165034 | 59 | 294 | 4.0 | 5.0 | 0.00 | 0.00 | 0.00 | 86 | 1007.5 |
| 20260505164528 | 59 | 298 | 5.0 | 9.0 | 0.00 | 0.00 | 0.00 | 85 | 1008.5 |
| 20260505164519 | 59 | 304 | 5.0 | 7.0 | 0.00 | 0.00 | 0.00 | 85 | 1008.9 |
| 20260505164022 | 60 | 294 | 5.0 | 8.0 | 0.00 | 0.00 | 0.00 | 83 | 1008.2 |
| 20260505163544 | 62 | 288 | 10.0 | 15.0 | 0.00 | 0.00 | 0.00 | 74 | 1008.9 |
| 20260505163533 | 62 | 272 | 8.0 | 15.0 | 0.00 | 0.00 | 0.00 | 76 | 1009.2 |
| 20260505163027 | 62 | 275 | 8.0 | 15.0 | 0.00 | 0.00 | 0.00 | 73 | 1008.2 |
| 20260505162605 | 63 | 262 | 10.0 | 13.0 | 0.00 | 0.00 | 0.00 | 73 | 1008.9 |
| 20260505162520 | 63 | 253 | 8.0 | 11.0 | 0.00 | 0.00 | 0.00 | 73 | 1008.9 |
| 20260505162023 | 63 | 245 | 9.0 | 15.0 | 0.00 | 0.00 | 0.00 | 73 | 1008.2 |
| 20260505161525 | 63 | 247 | 8.0 | 13.0 | 0.00 | 0.00 | 0.00 | 73 | 1009.2 |
| 20260505161112 | 63 | 240 | 6.0 | 10.0 | 0.00 | 0.00 | 0.00 | 74 | 1008.2 |
| 20260505160523 | 63 | 265 | 6.0 | 10.0 | 0.00 | 0.00 | 0.00 | 74 | 1009.2 |
| 20260505153031 | 65 | 234 | 14.0 | 22.0 | 0.00 | 0.00 | 0.00 | 69 | 1008.5 |
| 20260505152533 | 65 | 226 | 16.0 | 21.0 | 0.00 | 0.00 | 0.00 | 68 | 1009.2 |
| 20260505152057 | 66 | 243 | 15.0 | 22.0 | 0.00 | 0.00 | 0.00 | 66 | 1008.5 |
| 20260505151558 | 66 | 226 | 17.0 | 24.0 | 0.00 | 0.00 | 0.00 | 64 | 1009.2 |
| 20260505151521 | 66 | 232 | 15.0 | 30.0 | 0.00 | 0.00 | 0.00 | 64 | 1009.2 |
| 20260505151032 | 67 | 265 | 16.0 | 25.0 | 0.00 | 0.00 | 0.00 | 60 | 1008.5 |
| 20260505150552 | 65 | 271 | 16.0 | 26.0 | 0.00 | 0.00 | 0.00 | 59 | 1009.2 |
| 20260505150526 | 66 | 268 | 13.0 | 26.0 | 0.00 | 0.00 | 0.00 | 59 | 1009.6 |
| 20260505140529 | 63 | 29 | 1.0 | 4.0 | 0.00 | 0.00 | 0.00 | 60 | 1009.6 |
| 20260505140520 | 63 | 353 | 1.0 | 3.0 | 0.00 | 0.00 | 0.00 | 60 | 1009.6 |
| 20260505125024 | 57 | 73 | 2.0 | 5.0 | 0.00 | 0.00 | 0.00 | 67 | 1009.2 |
| 20260505124609 | 56 | 95 | 1.0 | 4.0 | 0.00 | 0.00 | 0.00 | 69 | 1009.9 |
| 20260505124534 | 56 | 100 | 2.0 | 4.0 | 0.00 | 0.00 | 0.00 | 69 | 1010.2 |
| 20260505124019 | 55 | 77 | 5.0 | 9.0 | 0.00 | 0.00 | 0.00 | 70 | 1009.2 |
| 20260505123623 | 55 | 89 | 4.0 | 5.0 | 0.00 | 0.00 | 0.00 | 71 | 1009.9 |
| 20260505123531 | 55 | 88 | 5.0 | 9.0 | 0.00 | 0.00 | 0.00 | 71 | 1010.2 |
| 20260505123024 | 54 | 91 | 5.0 | 8.0 | 0.00 | 0.00 | 0.00 | 72 | 1009.6 |
| 20260505122553 | 54 | 71 | 4.0 | 8.0 | 0.00 | 0.00 | 0.00 | 74 | 1010.2 |
| 20260505122518 | 54 | 75 | 4.0 | 7.0 | 0.00 | 0.00 | 0.00 | 74 | 1010.6 |
| 20260505122021 | 54 | 68 | 5.0 | 9.0 | 0.00 | 0.00 | 0.00 | 75 | 1009.6 |
| 20260505121532 | 53 | 68 | 5.0 | 6.0 | 0.00 | 0.00 | 0.00 | 75 | 1010.6 |
| 20260505121104 | 52 | 76 | 6.0 | 10.0 | 0.00 | 0.00 | 0.00 | 76 | 1009.6 |
| 20260505120603 | 53 | 91 | 7.0 | 8.0 | 0.00 | 0.00 | 0.00 | 76 | 1010.6 |
| 20260505120519 | 53 | 91 | 6.0 | 10.0 | 0.00 | 0.00 | 0.00 | 76 | 1010.6 |
| 20260505120022 | 52 | 62 | 5.0 | 7.0 | 0.00 | 0.00 | 0.00 | 78 | 1009.9 |
| 20260505115709 | 53 | 64 | 5.0 | 7.0 | 0.00 | 0.00 | 0.00 | 76 | 1010.6 |
| 20260505115542 | 53 | 67 | 5.0 | 8.0 | 0.00 | 0.00 | 0.00 | 77 | 1010.9 |
| 20260505115018 | 53 | 67 | 3.0 | 7.0 | 0.00 | 0.00 | 0.00 | 76 | 1009.9 |
| 20260505114648 | 53 | 76 | 6.0 | 8.0 | 0.00 | 0.00 | 0.00 | 75 | 1010.6 |
| 20260505114521 | 53 | 74 | 5.0 | 8.0 | 0.00 | 0.00 | 0.00 | 75 | 1010.9 |
| 20260505114033 | 54 | 79 | 5.0 | 5.0 | 0.00 | 0.00 | 0.00 | 74 | 1009.9 |
| 20260505113543 | 53 | 56 | 2.0 | 4.0 | 0.00 | 0.00 | 0.00 | 76 | 1010.6 |
| 20260505113525 | 53 | 65 | 2.0 | 4.0 | 0.00 | 0.00 | 0.00 | 76 | 1010.9 |
| 20260505113020 | 53 | 58 | 3.0 | 5.0 | 0.00 | 0.00 | 0.00 | 76 | 1009.9 |
| 20260505112557 | 53 | 76 | 2.0 | 3.0 | 0.00 | 0.00 | 0.00 | 77 | 1010.6 |
| 20260505112539 | 52 | 66 | 2.0 | 4.0 | 0.00 | 0.00 | 0.00 | 77 | 1010.9 |
| 20260505112056 | 51 | 82 | 5.0 | 9.0 | 0.00 | 0.00 | 0.00 | 78 | 1009.9 |
| 20260505111611 | 51 | 68 | 6.0 | 8.0 | 0.00 | 0.00 | 0.00 | 79 | 1010.6 |
| 20260505111556 | 51 | 64 | 6.0 | 7.0 | 0.00 | 0.00 | 0.00 | 79 | 1010.6 |
| 20260505111024 | 50 | 71 | 7.0 | 15.0 | 0.00 | 0.00 | 0.00 | 81 | 1009.9 |
| 20260505110540 | 49 | 83 | 7.0 | 10.0 | 0.00 | 0.00 | 0.00 | 82 | 1010.6 |
| 20260505110532 | 49 | 72 | 7.0 | 11.0 | 0.00 | 0.00 | 0.00 | 82 | 1010.6 |
| 20260505102137 | 46 | 131 | 3.0 | 6.0 | 0.00 | 0.00 | 0.00 | 87 | 1009.9 |
| 20260505101634 | 45 | 79 | 5.0 | 8.0 | 0.00 | 0.00 | 0.00 | 88 | 1010.6 |
| 20260505101522 | 46 | 85 | 5.0 | 8.0 | 0.00 | 0.00 | 0.00 | 88 | 1010.9 |
| 20260505101025 | 45 | 74 | 1.0 | 4.0 | 0.00 | 0.00 | 0.00 | 89 | 1009.9 |
| 20260505100555 | 44 | 80 | 4.0 | 5.0 | 0.00 | 0.00 | 0.00 | 89 | 1010.9 |
| 20260505100544 | 44 | 78 | 4.0 | 5.0 | 0.00 | 0.00 | 0.00 | 89 | 1010.9 |
| 20260505100021 | 44 | 74 | 2.0 | 4.0 | 0.00 | 0.00 | 0.00 | 89 | 1010.2 |
| 20260505095523 | 44 | 82 | 2.0 | 4.0 | 0.00 | 0.00 | 0.00 | 89 | 1010.9 |
| 20260505095025 | 44 | 81 | 2.0 | 4.0 | 0.00 | 0.00 | 0.00 | 89 | 1010.2 |
| 20260505094520 | 44 | 73 | 3.0 | 4.0 | 0.00 | 0.00 | 0.00 | 89 | 1011.3 |
| 20260505094031 | 44 | 111 | 3.0 | 4.0 | 0.00 | 0.00 | 0.00 | 89 | 1010.2 |
| 20260505093559 | 44 | 122 | 3.0 | 4.0 | 0.00 | 0.00 | 0.00 | 89 | 1011.3 |
| 20260505093533 | 44 | 115 | 3.0 | 4.0 | 0.00 | 0.00 | 0.00 | 89 | 1010.9 |
| 20260505093027 | 44 | 96 | 4.0 | 6.0 | 0.00 | 0.00 | 0.00 | 89 | 1010.2 |
| 20260505092547 | 44 | 108 | 2.0 | 4.0 | 0.00 | 0.00 | 0.00 | 89 | 1011.3 |
| 20260505092521 | 44 | 94 | 2.0 | 4.0 | 0.00 | 0.00 | 0.00 | 89 | 1011.3 |
| 20260505092041 | 44 | 84 | 3.0 | 6.0 | 0.00 | 0.00 | 0.00 | 89 | 1010.2 |
| 20260505091601 | 44 | 81 | 3.0 | 3.0 | 0.00 | 0.00 | 0.00 | 89 | 1010.9 |
| 20260505091534 | 44 | 72 | 3.0 | 4.0 | 0.00 | 0.00 | 0.00 | 89 | 1011.3 |
| 20260505091021 | 44 | 78 | 3.0 | 5.0 | 0.00 | 0.00 | 0.00 | 89 | 1010.2 |
| 20260505090742 | 44 | 74 | 4.0 | 5.0 | 0.00 | 0.00 | 0.00 | 89 | 1011.3 |
| 20260505090557 | 44 | 73 | 4.0 | 6.0 | 0.00 | 0.00 | 0.00 | 89 | 1011.3 |
| 20260505090029 | 44 | 76 | 2.0 | 4.0 | 0.00 | 0.00 | 0.00 | 89 | 1010.6 |
| 20260505085553 | 45 | 76 | 2.0 | 3.0 | 0.00 | 0.00 | 0.00 | 89 | 1011.3 |
| 20260505085527 | 45 | 77 | 1.0 | 3.0 | 0.00 | 0.00 | 0.00 | 89 | 1011.3 |
| 20260505085021 | 44 | 93 | 3.0 | 6.0 | 0.00 | 0.00 | 0.00 | 89 | 1010.2 |
| 20260505084524 | 44 | 62 | 2.0 | 4.0 | 0.00 | 0.00 | 0.00 | 89 | 1010.9 |
| 20260505084025 | 44 | 76 | 2.0 | 3.0 | 0.00 | 0.00 | 0.00 | 89 | 1010.2 |
| 20260505083537 | 44 | 126 | 2.0 | 3.0 | 0.00 | 0.00 | 0.00 | 89 | 1010.9 |
| 20260505083528 | 44 | 98 | 1.0 | 3.0 | 0.00 | 0.00 | 0.00 | 89 | 1011.3 |
| 20260505083022 | 44 | 95 | 2.0 | 4.0 | 0.00 | 0.00 | 0.00 | 89 | 1010.2 |
| 20260505082553 | 44 | 81 | 3.0 | 5.0 | 0.00 | 0.00 | 0.00 | 89 | 1011.3 |
| 20260505082533 | 44 | 79 | 3.0 | 5.0 | 0.00 | 0.00 | 0.00 | 89 | 1010.9 |
| 20260505082040 | 44 | 101 | 3.0 | 4.0 | 0.00 | 0.00 | 0.00 | 89 | 1010.2 |
| 20260505081555 | 44 | 81 | 3.0 | 3.0 | 0.00 | 0.00 | 0.00 | 89 | 1011.3 |
| 20260505081529 | 44 | 71 | 2.0 | 3.0 | 0.00 | 0.00 | 0.00 | 89 | 1011.3 |
| 20260505081023 | 44 | 79 | 2.0 | 4.0 | 0.00 | 0.00 | 0.00 | 89 | 1010.6 |
| 20260505080601 | 44 | 128 | 1.0 | 4.0 | 0.00 | 0.00 | 0.00 | 89 | 1011.6 |
| 20260505080554 | 44 | 129 | 1.0 | 2.0 | 0.00 | 0.00 | 0.00 | 89 | 1011.3 |